Other Public Products
Issued by NWS Grand Forks, ND

Home | Current Version | Previous Version | Graphics & Text | Print | Product List | Glossary On
Versions: 1 2 3 4 5 6 7 8 9 10 11 12 13 14 15 16 17 18 19 20 21 22 23 24 25 26 27 28 29 30 31 32 33 34 35 36 37 38 39 40 41 42 43 44 45 46 47 48 49 50
000
FPUS83 KFGF 231931
OPUFGF
PRAIRIE TO PINES WEATHER ROUNDUP
NATIONAL WEATHER SERVICE EASTERN NORTH DAKOTA/GRAND FORKS ND
200 PM CDT MON OCT 23 2017

 **SATELLITE DATA USED TO AUGMENT SKY COVER AT AUTOMATED STATIONS**
 *****  WEATHER ACROSS EASTERN NORTH DAKOTA  *****

CITY           SKY/WX    TMP DP  RH WIND       PRES   REMARKS
GRAND FORKS    FAIR      55  34  45 N18G28    29.92F
GRAND FORKS AF FAIR      55  27  34 NW24G30   29.93S
GRAND CITY NWS NOT AVBL
BUXTON           N/A     55  30  39 NW25        N/A
DEVILS LAKE    PTSUNNY   48  36  63 NW28G33   29.98F
FARGO          FAIR      56  32  40 NW28G39   29.93S
WAHPETON ARPT  NOT AVBL
$$

 *****  WEATHER ACROSS CENTRAL AND WESTERN NORTH DAKOTA  *****

CITY           SKY/WX    TMP DP  RH WIND       PRES   REMARKS
JAMESTOWN      FAIR      54  34  46 NW25G31   30.00F
BISMARCK       PTSUNNY   54  35  48 NW17G28   30.12F
MINOT          FAIR      54  35  48 W24G37    30.07S
MINOT AFB      FAIR      52  36  53 NW30G37   30.05F
GARRISON         N/A     53  33  46 NW33G44   30.10S
WILLISTON      FAIR      56  27  32 NW31G44   30.22R
DICKINSON      FAIR      56  27  32 NW30G40   30.18R
HETTINGER      PTSUNNY   55  24  30 NW37G49   30.22S
$$

 *****  OTHER OBSERVATIONS NORTHEAST NORTH DAKOTA  *****

CITY           SKY/WX    TMP DP  RH WIND       PRES   REMARKS
WALHALLA       FAIR     N/A N/A N/A NW20G28   29.96R
LANGDON        NOT AVBL
CAVALIER       FAIR      50  34  53 N21       29.95S
GRAFTON        FAIR      52  32  46 NW17G26   29.95S
CANDO          CLOUDY    48  34  57 NW22G29   30.02R
FORT TOTTEN      N/A     49  37  61 NW10      29.95S
ROLLA          CLOUDY    46  36  66 NW26G36   30.02R
RUGBY          NOT AVBL
 ***** THE ABOVE OBSERVATIONS ARE NON NWS ARE NOT QUALITY
        CONTROLLED AND MAY MIS-REPORT RAIN FOR SNOW...
$$

 *****  OTHER OBSERVATIONS SOUTHEAST NORTH DAKOTA *****

CITY           SKY/WX    TMP DP  RH WIND       PRES   REMARKS
COOPERSTOWN    FAIR      52  32  46 NW24G31   29.98S
VALLEY CITY    NOT AVBL
OAKES          NOT AVBL
GWINNER        CLEAR     55  32  41 NW21G30   29.98S
SHEYENNE NWR     N/A     55  31  39 NW20      29.95S
BUFFALO          N/A     53  30  42 SE24G36     N/A
WYNDMERE       NOT AVBL
 ***** THE ABOVE OBSERVATIONS ARE NON NWS ARE NOT QUALITY
       CONTROLLED AND MAY MIS-REPORT RAIN FOR SNOW...
$$

  *****  WEATHER ACROSS NORTHERN MINNESOTA  *****

CITY           SKY/WX    TMP DP  RH WIND       PRES   REMARKS
FLAG ISLAND    FAIR      45  34  65 NW24      29.84R
WARROAD        FAIR      46  34  61 NW21G29   29.87R
ROSEAU         FAIR      46  34  61 NW21G28   29.88R
HALLOCK        FAIR      50  32  50 N24       29.94R
THF RVR FALLS  FAIR      46  33  60 NW28G33   29.90S
HALSTAD          N/A     55  32  41 N22         N/A
FOSSTON        FAIR      45  34  65 NW22G30   29.90R
BAUDETTE       CLOUDY    45  36  70 NW20G30   29.81R
WASKISH        CLOUDY    46  37  71 NW14G24   29.83R
CROOKSTON      FAIR      48  36  61 N21G28    29.93R
$$
  *****  WEATHER ACROSS CENTRAL AND WEST MINNESOTA  *****

CITY           SKY/WX    TMP DP  RH WIND       PRES   REMARKS
BEMIDJI        PTSUNNY   45  34  66 NW17G28   29.85R
PARK RAPIDS    CLOUDY    46  36  68 NW21G32   29.84R
WADENA         CLOUDY    46  28  49 NW21G31   29.87R
DETROIT LAKES  FAIR      46  32  57 N23G37    29.92R
MOORHEAD       FAIR      55  30  38 NW28G37   29.92F
FERGUS FALLS   PTSUNNY   52  36  54 NW23G31   29.93R
ELBOW LAKE     CLOUDY    49  35  60 W29G35    29.93R
MORRIS MN      FAIR      52  34  50 N25G40    29.92R
STAPLES        CLOUDY    46  32  57 NW20G30   29.85R
WHEATON        FAIR      54  30  40 NW17G28   29.96S
$$
  *****  WEATHER ELSEWHERE ACROSS MINNESOTA  *****

CITY           SKY/WX    TMP DP  RH WIND       PRES   REMARKS
DULUTH         FAIR      59  42  53 NW16G28   29.69S
INTRNTL FALLS  CLOUDY    46  42  86 NW16G23   29.76R
ELY            PTSUNNY   55  41  58 W12G17    29.68R
CLOQUET        FAIR      57  37  47 W17G25    29.71
BRAINERD       CLOUDY    49  39  68 NW13G23   29.82R
HIBBING        CLOUDY    49  39  68 W15G22    29.73R
ALEXANDRIA     CLOUDY    49  33  54 NW21G30   29.89R
SAINT CLOUD    CLOUDY    49  40  71 NW16      29.83R
MINNEAPOLIS    FAIR      59  39  47 NW18G26   29.78S
$$

  *****  WEATHER ACROSS SOUTH DAKOTA  *****

CITY           SKY/WX    TMP DP  RH WIND       PRES   REMARKS
SIOUX FALLS    CLOUDY    54  35  48 NW30G40   29.98S
BROOKINGS      CLOUDY    49  36  61 NW26G33   29.99R
WATERTOWN      FAIR      52  34  50 NW30G38   29.98F
HURON          FAIR      57  32  38 NW26G33   30.06S
SISSETON         N/A     56  29  35 N33G41    29.95F
ABERDEEN       FAIR      54  36  50 NW25G33   30.05S
MITCHELL       FAIR      58  31  35 NW26G40   30.08R
PIERRE         PTSUNNY   58  33  39 N30G38    30.15S
MOBRIDGE         N/A     58  34  40 NW24G39     N/A
RAPID CITY     FAIR      58  22  24 NW38G51   30.30R
$$

  *****  SOME WEATHER IN NEARBY STATES *****

CITY           SKY/WX    TMP DP  RH WIND       PRES   REMARKS
GLASGOW MT     FAIR      56  27  32 NW17      30.34R
GREAT FALLS MT FAIR      55  19  24 W20G31    30.51R
CHEYENNE WY    FAIR      47  20  34 N23G29    30.40F
SCOTTSBLUFF NE FAIR      56  19  23 NW25G35   30.39F
OMAHA NE       FAIR      65  35  33 NW28G40   29.97F
DES MOINES IA  PTSUNNY   62  40  44 NW20G31   29.86F
DAVENPORT IA   FAIR      57  46  66 W9        29.77F
CHICAGO IL     CLOUDY    53  49  86 N9        29.71F
EAU CLAIRE WI  CLOUDY    55  42  61 W8        29.72S
LA CROSSE WI   CLOUDY    58  44  60 N5        29.74F
$$

  *****  SOME NATIONAL WEATHER *****

CITY           SKY/WX    TMP DP  RH WIND       PRES   REMARKS
LA GUARDIA NY  PTSUNNY   73  61  65 S15G24    30.17F
RALEIGH NC     PTSUNNY   76  64  66 SE14      29.98F
ATLANTA GA     FAIR      72  56  57 W17G28    29.87F
NEW ORLEANS LA FAIR      72  50  45 N15       30.03F
OKLAHOMA CITY  PTSUNNY   69  43  38 N22G35    30.10S
ALBUQUERQUE NM FAIR      71  23  16 N23G30    30.37F
SALT LAKE CITY PTSUNNY   63  39  41 N8        30.59R
LOS ANGELES CA FAIR      97  44  16 CALM      30.06F HX  93
BOISE ID       FAIR      55  40  56 W9        30.68S
SEATTLE WA     PTSUNNY   61  46  57 VRB5      30.63S
$$

*** WEATHER ACROSS MANITOBA...SASKATCHEWAN AND ONTARIO ***
                ***ONTARIO***

CITY           SKY/WX    TMP DP  RH WIND       PRES   REMARKS
GERALDTON      PTSUNNY   57  43  58 S10G17    29.72S
THUNDER BAY    MOSUNNY   59  45  58 S3        29.66S
SIOUX LOOKOUT  LGT RAIN  45  43  93 N9G17     29.70R FOG
TORONTO        CLOUDY    64  55  72 E9        29.85F
BIG TROUT LK   CLOUDY    43  32  65 W12       29.76R
PICKLE LAKE    LGT RAIN  50  39  66 N5        29.71R
DRYDEN         LGT RAIN  41  39  93 N9        29.74R
KENORA         MOSUNNY   43  32  65 NW16G23   29.81R
$$
                *** MANITOBA***

CITY           SKY/WX    TMP DP  RH WIND       PRES   REMARKS
BRANDON        MOSUNNY   46  34  61 NW17G24   30.02R
DAUPHIN        PTSUNNY   46  30  53 N12G17    30.05R
ISLAND LAKE    FLURRIES  39  32  75 NW17      29.87R
PILOT MOUND      N/A     45  34  65 NW20        N/A
THE PAS        MOSUNNY   41  28  60 W15       30.04R
THOMPSON       PTSUNNY   36  28  75 NW12G21   29.94R
WINNIPEG       CLOUDY    41  28  60 N23G30    29.96R
LYNN LAKE      CLOUDY    34  28  80 NW14G22   29.97R WCI  24
CHURCHILL      PTSUNNY   28  23  80 NW23G38   29.69R WCI  14
GILLAM         PTSUNNY   30  23  74 NW17G24   29.84  WCI  18
$$
                ***SASKATCHEWAN***

CITY           SKY/WX    TMP DP  RH WIND       PRES   REMARKS
ESTEVAN        MOSUNNY   50  34  53 NW32G40   30.15R
KINDERSLEY     MOSUNNY   52  30  43 NW22G29   30.31R
LLOYDMINSTER   MOSUNNY   48  32  53 NW20G31   30.26R
PRINCE ALBERT  PTSUNNY   46  36  66 NW14G24   30.18R
REGINA         MOSUNNY   50  34  53 NW28G35   30.20R
YORKTON        SUNNY     46  32  57 NW17G28   30.09R



USA.gov is the U.S. government's official web portal to all federal, state and local government web resources and services.